パンスターズ彗星

C/2015 X5 ( PanSTARRS )

English version
Home page
Updated on April 17, 2020

---------------------------------------------------------------------

・ プロフィール

発見日 2015年12月6日
発見光度 21.3等
発見者 Pan-STARRS 1 telescope (Haleakala)

・ 写真集

・ 軌道要素

Epoch 2018 Jan. 2.0 TT = JDT 2458120.5
T 2017 Dec. 31.02929 TT                                 Rudenko
q   6.8017371            (2000.0)            P               Q
z  -0.0004893      Peri.   27.75232     -0.25135993     +0.67029012
 +/-0.0000006      Node   122.31452     +0.66183227     -0.40736016
e   1.0033284      Incl.  124.29091     +0.70625508     +0.62029739
From 220 observations 2015 Dec. 6-2020 Jan. 1, mean residual 0".5.

・ 光度変化

        m1 = 2.0 + 5 logΔ + 15.0 log r(t - 150)

---------------------------------------------------------------------

軌道要素はM.P.E.C. 2020-G65に掲載されたものです。
光度グラフはComet for Windowsで作成したものです。

---------------------------------------------------------------------

Copyright(C) Seiichi Yoshida (comet@aerith.net). All rights reserved.